Regional Weather Roundup
Issued by NWS

Home | Current Version | Previous Version | Text Only | Print | Product List | Glossary On
Versions: 1 2 3 4 5 6 7 8 9 10 11 12 13 14 15 16 17 18 19 20 21 22 23 24 25 26 27 28 29 30 31 32 33 34 35 36 37 38 39 40 41 42 43 44 45 46 47 48 49 50
000
ASUS43 KMPX 221510
RWRMN
WEATHER ROUNDUP FOR MINNESOTA
NATIONAL WEATHER SERVICE TWIN CITIES/CHANHASSEN MN
1000 AM CDT MON MAY 22 2017


NOTE: "FAIR" INDICATES FEW OR NO CLOUDS BELOW 12,000 FEET WITH NO
SIGNIFICANT WEATHER AND/OR OBSTRUCTIONS TO VISIBILITY. N/A MEANS
CURRENT SKY AND/OR WEATHER CONDITIONS ARE NOT AVAILABLE.

MNZ060>063-068>070-221600-
   Twin Cities Metro

CITY           SKY/WX    TMP DP  RH WIND       PRES   REMARKS
TWIN CITIES    MOSUNNY   57  43  59 SW9       29.87S
ST PAUL        SUNNY     56  45  66 W12       29.87F
CRYSTAL        PTSUNNY   56  42  59 W10       29.85S
BLAINE         MOSUNNY   55  45  67 W10       29.85S
LAKEVILLE      SUNNY     57  45  62 W8        29.87S
EDEN PRAIRIE   SUNNY     57  44  62 W6        29.86F
SOUTH ST PAUL  SUNNY     57  44  61 W9        29.86S
LAKE ELMO      FAIR      55  45  67 W14       29.87S
$$
MNZ001>005-007-008-013>017-022>024-027-028-221600-
   Northwest Minnesota

CITY           SKY/WX    TMP DP  RH WIND       PRES   REMARKS
BEMIDJI        CLOUDY    46  44  90 W10       29.78S
HALLOCK        CLOUDY    50  45  81 N17G23    29.82S
ROSEAU         PTSUNNY   50  45  81 NW14G20   29.78S
WARROAD        CLOUDY    46  43  87 NW8       29.77S
THIEF RVR FALL CLOUDY    49  43  80 NW15      29.81S
CROOKSTON      PTSUNNY   52  45  76 N20       29.83S
FOSSTON        CLOUDY    48  43  81 NW13      29.81R
DETROIT LAKES  CLOUDY    50  45  81 NW9       29.84S
MOORHEAD       MOSUNNY   54  45  71 NW17      29.85S
PARK RAPIDS    CLOUDY    50  42  74 W13G21    29.80S
MAHNOMEN       CLOUDY    50  44  82 NW13G22   29.81F
$$
MNZ006-009>011-018-025>026-221600-
   North Central Minnesota

CITY           SKY/WX    TMP DP  RH WIND       PRES   REMARKS
BAUDETTE       CLOUDY    47  43  86 NW12      29.74S
FLAG ISLAND    LGT RAIN  46  43  87 N14       29.75R
INTL FALLS     CLOUDY    46  43  89 NW8       29.72S
WASKISH        CLOUDY    46  43  87 NW8       29.76R
BIG FORK       CLOUDY    48  45  87 W6        29.74S
LONGVILLE      CLOUDY    46  45  93 W6        29.79R
GRAND RAPIDS   CLOUDY    48  44  86 NW8       29.78
CRANE LAKE     CLOUDY    46  45  93 W5        29.73S
ORR            DRIZZLE   45  43  93 W5        29.70S
COOK           CLOUDY    46  45  93 W7        29.73S
WALKER         CLOUDY    47  43  86 W7        29.79S
$$
MNZ012-019>021-037-221600-
   Northeast Minnesota

CITY           SKY/WX    TMP DP  RH WIND       PRES   REMARKS
DULUTH         LGT RAIN  47  44  90 W14       29.75S FOG
ELY            CLOUDY    46  43  87 W8        29.71R
HIBBING        LGT RAIN  46  44  93 W8        29.74S
EVELETH          N/A    N/A N/A N/A W7        29.74S
DULUTH HARBOR  CLOUDY    52  46  82 SW15      29.77S
TWO HARBORS    CLOUDY    52  46  82 W10       29.72S
SILVER BAY     CLOUDY    50  46  87 SW5       29.71S
GRAND MARAIS     N/A     42  40  92 W10       29.71S
G MARAIS ARPRT CLOUDY    46  41  81 SW3       29.69S
$$
MNZ029>031-032-039>041-046>048-054>057-064-221600-
   West Central Minnesota

CITY           SKY/WX    TMP DP  RH WIND       PRES   REMARKS
FERGUS FALLS   MOSUNNY   52  45  76 NW10      29.85F
WHEATON        LGT RAIN  50  43  76 W6        29.90S
MORRIS         MOSUNNY   52  45  76 NW8       29.87S
ALEXANDRIA     CLOUDY    52  41  66 NW13      29.87R
ELBOW LAKE     FAIR      50  45  81 NW8       29.87S
WADENA         DRIZZLE   46  43  87 W6        29.83S
GLENWOOD       CLOUDY    52  43  71 NW14      29.87S
APPLETON       SUNNY     55  41  58 NW6       29.88S
BENSON         SUNNY     55  43  62 NE8       29.89S
ORTONVILLE     SUNNY     54  43  66 NW5       29.89R
MADISON        SUNNY     55  46  71 N3        29.89R
WILLMAR        FAIR      54  45  71 NW10      29.89S
$$
MNZ033>034-036-042>043-049>051-058-059-221600-
   Central Minnesota

CITY           SKY/WX    TMP DP  RH WIND       PRES   REMARKS
ST CLOUD       MOSUNNY   54  44  69 NW13      29.84F
SAUK CENTRE    FAIR      53  42  65 NW14      29.86R
PAYNESVILLE    SUNNY     52  43  70 NW8       29.88R
AITKIN         DRIZZLE   46  43  87 W8        29.79R
PINE RIVER     CLOUDY    48  43  81 W7G16     29.84S
BRAINERD       LGT RAIN  47  43  86 W12       29.82R
STAPLES        CLOUDY    48  43  81 NW14      29.83R
LONG PRAIRIE   FAIR      50  41  71 W13G18    29.85R
LITTLE FALLS   PTSUNNY   50  41  71 W13       29.84S
LITCHFIELD     SUNNY     55  45  67 W8        29.88S
BUFFALO        SUNNY     55  42  61 W9        29.87S
MAPLE LAKE     SUNNY     55  45  69 NW6       29.87S
HUTCHINSON     SUNNY     55  47  73 W6        29.89S
$$
MNZ037-044-045-052-053-221600-
   East Central Minnesota

CITY           SKY/WX    TMP DP  RH WIND       PRES   REMARKS
PRINCETON      MOSUNNY   55  45  67 W13G18    29.84S
MORA           CLOUDY    50  43  76 W13       29.84R
CAMBRIDGE      PTSUNNY   55  43  62 W10       29.82S
RUSH CITY      PTSUNNY   51  43  74 W8        29.83S
MOOSE LAKE     CLOUDY    50  43  76 W7G16     29.77S
HINCKLEY       CLOUDY    50  45  81 W12       29.81S
CLOQUET        CLOUDY    46  43  87 W8        29.77R FOG
MCGREGOR       CLOUDY    46  45  93 W7        29.79S
$$
MNZ071>073-080-081-089-090-097-098-221600-
   Southwest Minnesota

CITY           SKY/WX    TMP DP  RH WIND       PRES   REMARKS
MONTEVIDEO     SUNNY     57  46  67 NE3       29.89R
CANBY          SUNNY     54  46  75 CALM      29.90S
MARSHALL       SUNNY     56  43  61 CALM      29.89S
REDWOOD FALLS  SUNNY     57  43  59 N3        29.88S
OLIVIA         SUNNY     54  45  71 NW6       29.88S
PIPESTONE      SUNNY     59  39  47 CALM      29.88S
WINDOM         SUNNY     57  46  67 NW7       29.89F
WORTHINGTON    SUNNY     58  48  69 W6        29.89F
JACKSON        SUNNY     57  46  67 N6        29.89S
TRACY          SUNNY     57  45  64 NE3       29.89S
SLAYTON        SUNNY     57  48  73 N6        29.89S
$$
MNZ065>067-074>077-082>085-091>093-221600-
   South Central Minnesota

CITY           SKY/WX    TMP DP  RH WIND       PRES   REMARKS
MANKATO        MOSUNNY   58  42  55 NE3       29.89F
NEW ULM        SUNNY     55  43  62 CALM      29.88S
ST JAMES       SUNNY     55  46  71 W3        29.89F
FAIRMONT       SUNNY     58  48  69 NW12      29.88F
GLENCOE        SUNNY     55  49  79 W6        29.88S
FARIBAULT      SUNNY     57  46  67 S5        29.89S
OWATONNA       SUNNY     55  45  67 CALM      29.89S
WASECA         SUNNY     55  46  71 W5        29.90S
ALBERT LEA     SUNNY     57  46  67 NW7       29.88F
$$
MNZ078>079-086>088-094>096-221600-
   Southeast Minnesota

CITY           SKY/WX    TMP DP  RH WIND       PRES   REMARKS
ROCHESTER      SUNNY     56  48  74 W12       29.90S
RED WING       SUNNY     59  39  47 W8        29.86F
STANTON        SUNNY     58  43  57 W7        29.86F
DODGE CENTER   SUNNY     54  46  76 W9        29.89F
WINONA         SUNNY     59  45  58 W6        29.89S
AUSTIN         SUNNY     57  46  67 W6        29.88S
PRESTON        SUNNY     56  46  69 W8        29.90F
$$
ABBREVIATIONS USED IN REMARKS
   TC - TEMPERATURES IN CELSIUS
  WCI - WIND CHILL INDEX
   HX - HEAT INDEX
  VSB - VISIBILITY
$$




USA.gov is the U.S. government's official web portal to all federal, state and local government web resources and services.